Regional Weather Roundup
Issued by NWS

Home | Current Version | Previous Version | Graphics & Text | Print | Product List | Glossary On
Versions: 1 2 3 4 5 6 7 8 9 10 11 12 13 14 15 16 17 18 19 20 21 22 23 24 25 26 27 28 29 30 31 32 33 34 35 36 37 38 39 40 41 42 43 44 45 46 47 48 49 50
000
ASUS44 KMEG 191110
RWRTN
TENNESSEE HOURLY STATE WEATHER ROUNDUP
NATIONAL WEATHER SERVICE MEMPHIS TN
600 AM CDT FRI SEP 19 2014

TNZ002-004-019-021-049-052-054-088>092-191200-
WEST TENNESSEE

CITY           SKY/WX    TMP DP  RH WIND       PRES   REMARKS
MEMPHIS INTL   FOG       67  65  93 CALM      30.00R VSB 1
NWS MEMPHIS      N/A     65 N/A N/A MISG        N/A
JACKSON        PTCLDY    59  57  94 CALM      30.01S FOG
DYERSBURG      CLEAR     61  48  63 NE6       30.03R
UNION CITY     MOCLDY    55  55 100 CALM      30.03R
PARIS          CLEAR     55  54  94 N5        30.04R
HUNTINGDON     CLEAR     57  55  93 NE5       30.03R
LEXINGTON      CLEAR     59  57  94 CALM      30.01R
SAVANNAH       CLEAR     61  61 100 CALM      30.01S
$$

TNZ008-025-027-028-033-062-065-066-191200-
NORTH MIDDLE TENNESSEE

CITY           SKY/WX    TMP DP  RH WIND       PRES   REMARKS
NASHVILLE      PTCLDY    59  57  93 NE5       30.05R
DICKSON        CLEAR     57  55  94 CALM      30.04R
PORTLAND       CLEAR     52  52 100 CALM      30.05S
CLARKSVILLE    PTCLDY    57  53  86 NE6       30.05R
LEBANON        PTCLDY    56  55  96 CALM      30.04R
SMYRNA         CLEAR     58  58 100 CALM      30.05S
MURFREESBORO   CLEAR     58  57  96 CALM      30.04R
COOKEVILLE     CLEAR     54  54 100 CALM      30.06R
GALLATIN       MOCLDY    60  57  89 NE3       30.06R
CROSSVILLE     MOCLDY    57  53  86 CALM      30.10R
$$

TNZ061-075-076-078-094-096-097-191200-
SOUTH MIDDLE TENNESSEE

CITY           SKY/WX    TMP DP  RH WIND       PRES   REMARKS
LEWISBURG      CLEAR     56  55  96 CALM      30.03S
FAYETTEVILLE   CLEAR     59  57  94 E5        30.03S
TULLAHOMA      CLEAR     59  57  94 CALM      30.06R
WINCHESTER     CLEAR     59  55  88 CALM      30.05R
MCMINNVILLE    PTCLDY    57  57 100 NE5       30.06R
COLUMBIA       CLEAR     57  57 100 CALM      30.02R
SHELBYVILLE    CLEAR     57  57 100 CALM      30.05R
$$

TNZ017-018-042-046-047-191200-
NORTHEAST TENNESSEE

CITY           SKY/WX    TMP DP  RH WIND       PRES   REMARKS
TRI CITIES     PTCLDY    54  51  90 CALM      30.11S
ELIZABETHTON   SUNNY     57  55  94 NE3       30.12S
$$

TNZ012-013-036-069-073-074-191200-
CENTRAL EAST TENNESSEE

CITY           SKY/WX    TMP DP  RH WIND       PRES   REMARKS
KNOXVILLE      PTCLDY    57  56  96 NE3       30.07R
OAK RIDGE      CLEAR     57  55  93 E3        30.09S
GATLINBURG     SUNNY     54  54 100 CALM      30.08R
MORRISTOWN     SUNNY     57  55  94 NE5       30.10R
$$

TNZ083-085-099-191200-
SOUTHEAST TENNESSEE

CITY           SKY/WX    TMP DP  RH WIND       PRES   REMARKS
CHATTANOOGA    MOCLDY    65  59  81 NE3       30.06R
$$

SKY/WX REPORTED AS FAIR MEANS FEW OR NO CLOUDS BELOW
12 THOUSAND FEET.




USA.gov is the U.S. government's official web portal to all federal, state and local government web resources and services.